Location: Unspecified
(50.7693°N, 0.0000°E)
Time: 07:30:17
(UTC+00:00)

A-11 Canister half - Pass Details

Date: 18 June 2019
Orbit: 1526 x 1683 km, 47.3° (Epoch: 17 July)

Event Time Altitude Azimuth Distance (km) Brightness Sun altitude
Rises 12:28:18 0° 287° (WNW) 4,682 11.5 62.1°
Reaches altitude 10° 12:31:57 10° 276° (W) 3,703 11.2 62.0°
Maximum altitude 12:39:07 26° 225° (SW) 2,684 11.2 61.7°
Drops below altitude 10° 12:46:24 10° 174° (S) 3,754 11.6 61.3°
Sets 12:50:10 0° 162° (SSE) 4,760 11.9 61.0°
